contact:dominique.lefevre@mio.osupytheas.fr, maurice.libes@osupytheas.fr, didier.mallarino@osupytheas.fr
Project:EMSO http://www.emso-fr.org/EMSO-France
Depth: 2436.0 m
Title:EMSO Ligure Ouest : Data MII capteur MICROCAT
DateTime_Computer,Latitude,Longitude,Temperature,Conductivity,Pressure,DateTime_Instrument
DateTime_Computer,Latitude,Longitude,degC,S m-1,dbar,DateTime_Instrument
2023-07-12T00:01:47Z,42.805,6.029,13.3030,4.60105,2470.74,2023-7-12T02:04:04Z
2023-07-12T00:04:50Z,42.805,6.029,13.3026,4.60099,2470.754,2023-7-12T02:07:07Z
2023-07-12T00:07:53Z,42.805,6.029,13.3029,4.60103,2470.74,2023-7-12T02:10:10Z
2023-07-12T00:10:57Z,42.805,6.029,13.3026,4.60097,2470.754,2023-7-12T02:13:13Z
2023-07-12T00:14:00Z,42.805,6.029,13.3028,4.60099,2470.754,2023-7-12T02:16:16Z
2023-07-12T00:17:03Z,42.805,6.029,13.3026,4.60098,2470.74,2023-7-12T02:19:19Z
2023-07-12T00:20:06Z,42.805,6.029,13.3026,4.60098,2470.74,2023-7-12T02:22:22Z
2023-07-12T00:23:09Z,42.805,6.029,13.3027,4.60094,2470.763,2023-7-12T02:25:25Z
2023-07-12T00:26:12Z,42.805,6.029,13.3024,4.60094,2470.777,2023-7-12T02:28:28Z
2023-07-12T00:29:15Z,42.805,6.029,13.3021,4.60098,2470.763,2023-7-12T02:31:31Z
2023-07-12T00:32:18Z,42.805,6.029,13.3023,4.60099,2470.74,2023-7-12T02:34:35Z
2023-07-12T00:35:21Z,42.805,6.029,13.3030,4.60104,2470.763,2023-7-12T02:37:38Z
2023-07-12T00:38:24Z,42.805,6.029,13.3026,4.60096,2470.8,2023-7-12T02:40:41Z
2023-07-12T00:41:27Z,42.805,6.029,13.3023,4.60093,2470.763,2023-7-12T02:43:44Z
2023-07-12T00:44:30Z,42.805,6.029,13.3026,4.60097,2470.763,2023-7-12T02:46:47Z
2023-07-12T00:47:34Z,42.805,6.029,13.3026,4.60093,2470.75,2023-7-12T02:49:50Z
2023-07-12T00:50:37Z,42.805,6.029,13.3026,4.60095,2470.787,2023-7-12T02:52:53Z
2023-07-12T00:53:40Z,42.805,6.029,13.3029,4.60099,2470.787,2023-7-12T02:55:56Z
2023-07-12T00:56:43Z,42.805,6.029,13.3029,4.60097,2470.74,2023-7-12T02:58:59Z
2023-07-12T00:59:46Z,42.805,6.029,13.3026,4.60097,2470.763,2023-7-12T03:02:02Z
2023-07-12T01:02:49Z,42.805,6.029,13.3029,4.60094,2470.717,2023-7-12T03:05:05Z
2023-07-12T01:05:52Z,42.805,6.029,13.3027,4.60096,2470.8,2023-7-12T03:08:08Z
2023-07-12T01:08:55Z,42.805,6.029,13.3026,4.60104,2470.754,2023-7-12T03:11:12Z
2023-07-12T01:11:58Z,42.805,6.029,13.3024,4.60101,2470.74,2023-7-12T03:14:15Z
2023-07-12T01:15:01Z,42.805,6.029,13.3026,4.60096,2470.763,2023-7-12T03:17:18Z
2023-07-12T01:18:04Z,42.805,6.029,13.3022,4.60097,2470.763,2023-7-12T03:20:21Z
2023-07-12T01:21:07Z,42.805,6.029,13.3025,4.60099,2470.74,2023-7-12T03:23:24Z
2023-07-12T01:24:11Z,42.805,6.029,13.3028,4.60096,2470.787,2023-7-12T03:26:27Z
2023-07-12T01:27:14Z,42.805,6.029,13.3029,4.60104,2470.787,2023-7-12T03:29:30Z
2023-07-12T01:30:17Z,42.805,6.029,13.3021,4.60098,2470.763,2023-7-12T03:32:33Z
2023-07-12T01:33:20Z,42.805,6.029,13.3027,4.60095,2470.74,2023-7-12T03:35:36Z
2023-07-12T01:36:23Z,42.805,6.029,13.3029,4.60097,2470.787,2023-7-12T03:38:39Z
2023-07-12T01:39:26Z,42.805,6.029,13.3030,4.60099,2470.787,2023-7-12T03:41:42Z
2023-07-12T01:42:29Z,42.805,6.029,13.3028,4.60097,2470.763,2023-7-12T03:44:45Z
2023-07-12T01:45:32Z,42.805,6.029,13.3028,4.60097,2470.763,2023-7-12T03:47:49Z
2023-07-12T01:48:35Z,42.805,6.029,13.3026,4.60098,2470.777,2023-7-12T03:50:52Z
2023-07-12T01:51:38Z,42.805,6.029,13.3026,4.60095,2470.777,2023-7-12T03:53:55Z
2023-07-12T01:54:41Z,42.805,6.029,13.3029,4.60095,2470.787,2023-7-12T03:56:58Z
2023-07-12T01:57:44Z,42.805,6.029,13.3029,4.60102,2470.777,2023-7-12T04:00:01Z
2023-07-12T02:00:48Z,42.805,6.029,13.3030,4.60100,2470.74,2023-7-12T04:03:04Z
2023-07-12T02:03:51Z,42.805,6.029,13.3028,4.60099,2470.74,2023-7-12T04:06:07Z
2023-07-12T02:06:54Z,42.805,6.029,13.3025,4.60097,2470.8,2023-7-12T04:09:10Z
2023-07-12T02:09:57Z,42.805,6.029,13.3026,4.60101,2470.777,2023-7-12T04:12:13Z
2023-07-12T02:13:00Z,42.805,6.029,13.3023,4.60097,2470.763,2023-7-12T04:15:16Z
2023-07-12T02:16:03Z,42.805,6.029,13.3028,4.60101,2470.763,2023-7-12T04:18:19Z
2023-07-12T02:19:06Z,42.805,6.029,13.3026,4.60103,2470.754,2023-7-12T04:21:22Z
2023-07-12T02:22:09Z,42.805,6.029,13.3029,4.60101,2470.754,2023-7-12T04:24:25Z
2023-07-12T02:25:12Z,42.805,6.029,13.3023,4.60104,2470.824,2023-7-12T04:27:29Z
2023-07-12T02:28:15Z,42.805,6.029,13.3029,4.60103,2470.8,2023-7-12T04:30:32Z
2023-07-12T02:31:18Z,42.805,6.029,13.3028,4.60101,2470.787,2023-7-12T04:33:35Z
2023-07-12T02:34:21Z,42.805,6.029,13.3026,4.60098,2470.763,2023-7-12T04:36:38Z
2023-07-12T02:37:25Z,42.805,6.029,13.3025,4.60098,2470.763,2023-7-12T04:39:41Z
2023-07-12T02:40:28Z,42.805,6.029,13.3026,4.60097,2470.8,2023-7-12T04:42:44Z
2023-07-12T02:43:31Z,42.805,6.029,13.3027,4.60103,2470.763,2023-7-12T04:45:47Z
2023-07-12T02:46:34Z,42.805,6.029,13.3026,4.60099,2470.787,2023-7-12T04:48:50Z
2023-07-12T02:49:37Z,42.805,6.029,13.3027,4.60104,2470.777,2023-7-12T04:51:53Z
2023-07-12T02:52:40Z,42.805,6.029,13.3027,4.60102,2470.763,2023-7-12T04:54:56Z
2023-07-12T02:55:43Z,42.805,6.029,13.3029,4.60097,2470.777,2023-7-12T04:57:59Z
2023-07-12T02:58:46Z,42.805,6.029,13.3028,4.60098,2470.777,2023-7-12T05:01:03Z
2023-07-12T03:01:49Z,42.805,6.029,13.3031,4.60102,2470.8,2023-7-12T05:04:06Z
2023-07-12T03:04:52Z,42.805,6.029,13.3029,4.60104,2470.787,2023-7-12T05:07:09Z
2023-07-12T03:07:55Z,42.805,6.029,13.3026,4.60099,2470.763,2023-7-12T05:10:12Z
2023-07-12T03:10:58Z,42.805,6.029,13.3031,4.60099,2470.787,2023-7-12T05:13:15Z
2023-07-12T03:14:02Z,42.805,6.029,13.3028,4.60099,2470.777,2023-7-12T05:16:18Z
2023-07-12T03:17:05Z,42.805,6.029,13.3031,4.60099,2470.763,2023-7-12T05:19:21Z
2023-07-12T03:20:08Z,42.805,6.029,13.3030,4.60101,2470.777,2023-7-12T05:22:24Z
2023-07-12T03:23:11Z,42.805,6.029,13.3028,4.60099,2470.777,2023-7-12T05:25:27Z
2023-07-12T03:26:14Z,42.805,6.029,13.3030,4.60097,2470.824,2023-7-12T05:28:30Z
2023-07-12T03:29:17Z,42.805,6.029,13.3029,4.60099,2470.787,2023-7-12T05:31:33Z
2023-07-12T03:32:20Z,42.805,6.029,13.3029,4.60108,2470.763,2023-7-12T05:34:36Z
2023-07-12T03:35:23Z,42.805,6.029,13.3031,4.60102,2470.8,2023-7-12T05:37:40Z
2023-07-12T03:38:26Z,42.805,6.029,13.3031,4.60106,2470.74,2023-7-12T05:40:43Z
2023-07-12T03:41:29Z,42.805,6.029,13.3029,4.60110,2470.777,2023-7-12T05:43:46Z
2023-07-12T03:44:32Z,42.805,6.029,13.3031,4.60113,2470.777,2023-7-12T05:46:49Z
2023-07-12T03:47:35Z,42.805,6.029,13.3030,4.60111,2470.8,2023-7-12T05:49:52Z
2023-07-12T03:50:39Z,42.805,6.029,13.3030,4.60108,2470.8,2023-7-12T05:52:55Z
2023-07-12T03:53:42Z,42.805,6.029,13.3028,4.60115,2470.74,2023-7-12T05:55:58Z
2023-07-12T03:56:45Z,42.805,6.029,13.3032,4.60122,2470.754,2023-7-12T05:59:01Z
2023-07-12T03:59:48Z,42.805,6.029,13.3032,4.60128,2470.8,2023-7-12T06:02:04Z
2023-07-12T04:02:51Z,42.805,6.029,13.3031,4.60119,2470.754,2023-7-12T06:05:07Z
2023-07-12T04:05:54Z,42.805,6.029,13.3028,4.60116,2470.763,2023-7-12T06:08:10Z
2023-07-12T04:08:57Z,42.805,6.029,13.3027,4.60109,2470.787,2023-7-12T06:11:13Z
2023-07-12T04:12:00Z,42.805,6.029,13.3030,4.60119,2470.777,2023-7-12T06:14:17Z
2023-07-12T04:15:03Z,42.805,6.029,13.3030,4.60112,2470.8,2023-7-12T06:17:20Z
2023-07-12T04:18:06Z,42.805,6.029,13.3029,4.60114,2470.763,2023-7-12T06:20:23Z
2023-07-12T04:21:09Z,42.805,6.029,13.3029,4.60106,2470.777,2023-7-12T06:23:26Z
2023-07-12T04:24:12Z,42.805,6.029,13.3032,4.60113,2470.754,2023-7-12T06:26:29Z
2023-07-12T04:27:16Z,42.805,6.029,13.3031,4.60109,2470.754,2023-7-12T06:29:32Z
2023-07-12T04:30:19Z,42.805,6.029,13.3033,4.60103,2470.754,2023-7-12T06:32:35Z
2023-07-12T04:33:22Z,42.805,6.029,13.3033,4.60105,2470.717,2023-7-12T06:35:38Z
2023-07-12T04:36:25Z,42.805,6.029,13.3030,4.60104,2470.74,2023-7-12T06:38:41Z
2023-07-12T04:39:28Z,42.805,6.029,13.3033,4.60107,2470.754,2023-7-12T06:41:44Z
2023-07-12T04:42:31Z,42.805,6.029,13.3034,4.60119,2470.73,2023-7-12T06:44:47Z
2023-07-12T04:45:34Z,42.805,6.029,13.3032,4.60125,2470.754,2023-7-12T06:47:50Z
2023-07-12T04:48:37Z,42.805,6.029,13.3027,4.60120,2470.754,2023-7-12T06:50:54Z
2023-07-12T04:51:40Z,42.805,6.029,13.3032,4.60115,2470.763,2023-7-12T06:53:57Z
2023-07-12T04:54:43Z,42.805,6.029,13.3029,4.60119,2470.74,2023-7-12T06:57:00Z
2023-07-12T04:57:46Z,42.805,6.029,13.3029,4.60126,2470.754,2023-7-12T07:00:03Z
2023-07-12T05:00:49Z,42.805,6.029,13.3034,4.60134,2470.74,2023-7-12T07:03:06Z
2023-07-12T05:03:53Z,42.805,6.029,13.3033,4.60136,2470.754,2023-7-12T07:06:09Z
2023-07-12T05:06:56Z,42.805,6.029,13.3032,4.60128,2470.74,2023-7-12T07:09:12Z
2023-07-12T05:09:59Z,42.805,6.029,13.3033,4.60108,2470.73,2023-7-12T07:12:15Z
2023-07-12T05:13:02Z,42.805,6.029,13.3031,4.60126,2470.73,2023-7-12T07:15:18Z
2023-07-12T05:16:05Z,42.805,6.029,13.3034,4.60115,2470.763,2023-7-12T07:18:21Z
2023-07-12T05:19:08Z,42.805,6.029,13.3036,4.60114,2470.73,2023-7-12T07:21:24Z
2023-07-12T05:22:11Z,42.805,6.029,13.3038,4.60112,2470.74,2023-7-12T07:24:27Z
2023-07-12T05:25:14Z,42.805,6.029,13.3034,4.60127,2470.717,2023-7-12T07:27:31Z
2023-07-12T05:28:17Z,42.805,6.029,13.3039,4.60107,2470.73,2023-7-12T07:30:34Z
2023-07-12T05:31:20Z,42.805,6.029,13.3036,4.60107,2470.74,2023-7-12T07:33:37Z
2023-07-12T05:34:23Z,42.805,6.029,13.3031,4.60111,2470.754,2023-7-12T07:36:40Z
2023-07-12T05:37:26Z,42.805,6.029,13.3030,4.60121,2470.73,2023-7-12T07:39:43Z
2023-07-12T05:40:30Z,42.805,6.029,13.3036,4.60122,2470.74,2023-7-12T07:42:46Z
2023-07-12T05:43:33Z,42.805,6.029,13.3039,4.60128,2470.74,2023-7-12T07:45:49Z
2023-07-12T05:46:36Z,42.805,6.029,13.3035,4.60175,2470.717,2023-7-12T07:48:52Z
2023-07-12T05:49:39Z,42.805,6.029,13.3034,4.60184,2470.693,2023-7-12T07:51:55Z
2023-07-12T05:52:42Z,42.805,6.029,13.3041,4.60147,2470.67,2023-7-12T07:54:58Z
2023-07-12T05:55:45Z,42.805,6.029,13.3051,4.60155,2470.717,2023-7-12T07:58:01Z
2023-07-12T05:58:48Z,42.805,6.029,13.3044,4.60190,2470.717,2023-7-12T08:01:04Z
2023-07-12T06:01:51Z,42.805,6.029,13.3057,4.60129,2470.73,2023-7-12T08:04:08Z
2023-07-12T06:04:54Z,42.805,6.029,13.3070,4.60162,2470.693,2023-7-12T08:07:11Z
2023-07-12T06:07:57Z,42.805,6.029,13.3073,4.60135,2470.707,2023-7-12T08:10:14Z
2023-07-12T06:11:00Z,42.805,6.029,13.3046,4.60149,2470.754,2023-7-12T08:13:17Z
2023-07-12T06:14:03Z,42.805,6.029,13.3057,4.60168,2470.74,2023-7-12T08:16:20Z
2023-07-12T06:17:07Z,42.805,6.029,13.3096,4.60165,2470.73,2023-7-12T08:19:23Z
2023-07-12T06:20:10Z,42.805,6.029,13.3108,4.60181,2470.717,2023-7-12T08:22:26Z
2023-07-12T06:23:13Z,42.805,6.029,13.3102,4.60177,2470.717,2023-7-12T08:25:29Z
2023-07-12T06:26:16Z,42.805,6.029,13.3107,4.60160,2470.707,2023-7-12T08:28:32Z
2023-07-12T06:29:19Z,42.805,6.029,13.3096,4.60132,2470.707,2023-7-12T08:31:35Z
2023-07-12T06:32:20Z,42.805,6.029,13.3085,4.60152,2470.707,2023-7-12T08:34:36Z
2023-07-12T06:35:23Z,42.805,6.029,13.3097,4.60137,2470.721,2023-7-12T08:37:39Z
2023-07-12T06:38:26Z,42.805,6.029,13.3109,4.60140,2470.693,2023-7-12T08:40:43Z
2023-07-12T06:41:29Z,42.805,6.029,13.3108,4.60162,2470.693,2023-7-12T08:43:46Z
2023-07-12T06:44:32Z,42.805,6.029,13.3111,4.60150,2470.684,2023-7-12T08:46:49Z
2023-07-12T06:47:35Z,42.805,6.029,13.3111,4.60143,2470.684,2023-7-12T08:49:52Z
2023-07-12T06:50:38Z,42.805,6.029,13.3110,4.60145,2470.693,2023-7-12T08:52:55Z
2023-07-12T06:53:42Z,42.805,6.029,13.3113,4.60133,2470.684,2023-7-12T08:55:58Z
2023-07-12T06:56:45Z,42.805,6.029,13.3113,4.60181,2470.684,2023-7-12T08:59:01Z
2023-07-12T06:59:48Z,42.805,6.029,13.3118,4.60156,2470.73,2023-7-12T09:02:04Z
2023-07-12T07:02:51Z,42.805,6.029,13.3113,4.60176,2470.684,2023-7-12T09:05:07Z
2023-07-12T07:05:54Z,42.805,6.029,13.3111,4.60170,2470.707,2023-7-12T09:08:10Z
2023-07-12T07:08:57Z,42.805,6.029,13.3109,4.60164,2470.684,2023-7-12T09:11:13Z
2023-07-12T07:12:00Z,42.805,6.029,13.3108,4.60186,2470.661,2023-7-12T09:14:16Z
2023-07-12T07:15:03Z,42.805,6.029,13.3123,4.60173,2470.684,2023-7-12T09:17:20Z
2023-07-12T07:18:06Z,42.805,6.029,13.3119,4.60154,2470.684,2023-7-12T09:20:23Z
2023-07-12T07:21:09Z,42.805,6.029,13.3133,4.60142,2470.67,2023-7-12T09:23:26Z
2023-07-12T07:24:12Z,42.805,6.029,13.3123,4.60137,2470.661,2023-7-12T09:26:29Z
2023-07-12T07:27:15Z,42.805,6.029,13.3119,4.60140,2470.684,2023-7-12T09:29:32Z
2023-07-12T07:30:19Z,42.805,6.029,13.3117,4.60132,2470.684,2023-7-12T09:32:35Z
2023-07-12T07:33:22Z,42.805,6.029,13.3111,4.60142,2470.661,2023-7-12T09:35:38Z
2023-07-12T07:36:25Z,42.805,6.029,13.3110,4.60140,2470.684,2023-7-12T09:38:41Z
2023-07-12T07:39:28Z,42.805,6.029,13.3111,4.60148,2470.717,2023-7-12T09:41:44Z
2023-07-12T07:42:31Z,42.805,6.029,13.3111,4.60139,2470.698,2023-7-12T09:44:47Z
2023-07-12T07:45:34Z,42.805,6.029,13.3111,4.60134,2470.661,2023-7-12T09:47:50Z
2023-07-12T07:48:37Z,42.805,6.029,13.3123,4.60137,2470.684,2023-7-12T09:50:53Z
2023-07-12T07:51:40Z,42.805,6.029,13.3116,4.60148,2470.684,2023-7-12T09:53:57Z
2023-07-12T07:54:43Z,42.805,6.029,13.3111,4.60147,2470.684,2023-7-12T09:57:00Z
2023-07-12T07:57:46Z,42.805,6.029,13.3112,4.60128,2470.684,2023-7-12T10:00:03Z
2023-07-12T08:00:49Z,42.805,6.029,13.3113,4.60132,2470.684,2023-7-12T10:03:06Z
2023-07-12T08:03:52Z,42.805,6.029,13.3118,4.60124,2470.67,2023-7-12T10:06:09Z
2023-07-12T08:06:56Z,42.805,6.029,13.3112,4.60144,2470.624,2023-7-12T10:09:12Z
2023-07-12T08:09:59Z,42.805,6.029,13.3108,4.60122,2470.684,2023-7-12T10:12:15Z
2023-07-12T08:13:02Z,42.805,6.029,13.3106,4.60132,2470.661,2023-7-12T10:15:18Z
2023-07-12T08:16:05Z,42.805,6.029,13.3113,4.60127,2470.661,2023-7-12T10:18:21Z
2023-07-12T08:19:08Z,42.805,6.029,13.3119,4.60123,2470.661,2023-7-12T10:21:24Z
2023-07-12T08:22:11Z,42.805,6.029,13.3104,4.60125,2470.67,2023-7-12T10:24:27Z
2023-07-12T08:25:14Z,42.805,6.029,13.3105,4.60129,2470.637,2023-7-12T10:27:30Z
2023-07-12T08:28:17Z,42.805,6.029,13.3115,4.60141,2470.646,2023-7-12T10:30:34Z
2023-07-12T08:31:19Z,42.805,6.029,13.3100,4.60126,2470.646,2023-7-12T10:33:35Z
2023-07-12T08:34:22Z,42.805,6.029,13.3095,4.60135,2470.661,2023-7-12T10:36:38Z
2023-07-12T08:37:25Z,42.805,6.029,13.3104,4.60125,2470.637,2023-7-12T10:39:41Z
2023-07-12T08:40:28Z,42.805,6.029,13.3111,4.60128,2470.646,2023-7-12T10:42:44Z
2023-07-12T08:43:31Z,42.805,6.029,13.3108,4.60134,2470.661,2023-7-12T10:45:47Z
2023-07-12T08:46:34Z,42.805,6.029,13.3101,4.60125,2470.684,2023-7-12T10:48:50Z
2023-07-12T08:49:37Z,42.805,6.029,13.3100,4.60127,2470.698,2023-7-12T10:51:54Z
2023-07-12T08:52:40Z,42.805,6.029,13.3102,4.60140,2470.661,2023-7-12T10:54:57Z
2023-07-12T08:55:43Z,42.805,6.029,13.3104,4.60137,2470.661,2023-7-12T10:58:00Z
2023-07-12T08:58:46Z,42.805,6.029,13.3061,4.60158,2470.684,2023-7-12T11:01:03Z
2023-07-12T09:01:49Z,42.805,6.029,13.3039,4.60179,2470.637,2023-7-12T11:04:06Z
2023-07-12T09:04:53Z,42.805,6.029,13.3034,4.60211,2470.661,2023-7-12T11:07:09Z
2023-07-12T09:07:56Z,42.805,6.029,13.3033,4.60167,2470.646,2023-7-12T11:10:12Z
2023-07-12T09:10:59Z,42.805,6.029,13.3036,4.60158,2470.67,2023-7-12T11:13:15Z
2023-07-12T09:14:02Z,42.805,6.029,13.3034,4.60128,2470.646,2023-7-12T11:16:18Z
2023-07-12T09:17:05Z,42.805,6.029,13.3034,4.60149,2470.624,2023-7-12T11:19:21Z
2023-07-12T09:20:08Z,42.805,6.029,13.3031,4.60139,2470.661,2023-7-12T11:22:24Z
2023-07-12T09:23:11Z,42.805,6.029,13.3033,4.60155,2470.661,2023-7-12T11:25:28Z
2023-07-12T09:26:14Z,42.805,6.029,13.3034,4.60152,2470.61,2023-7-12T11:28:31Z
2023-07-12T09:29:17Z,42.805,6.029,13.3031,4.60154,2470.661,2023-7-12T11:31:34Z
2023-07-12T09:32:20Z,42.805,6.029,13.3034,4.60193,2470.624,2023-7-12T11:34:37Z
2023-07-12T09:35:23Z,42.805,6.029,13.3035,4.60184,2470.637,2023-7-12T11:37:40Z
2023-07-12T09:38:27Z,42.805,6.029,13.3037,4.60192,2470.6,2023-7-12T11:40:43Z
2023-07-12T09:41:30Z,42.805,6.029,13.3035,4.60129,2470.614,2023-7-12T11:43:46Z
2023-07-12T09:44:33Z,42.805,6.029,13.3034,4.60122,2470.661,2023-7-12T11:46:49Z
2023-07-12T09:47:36Z,42.805,6.029,13.3033,4.60112,2470.637,2023-7-12T11:49:52Z
2023-07-12T09:50:39Z,42.805,6.029,13.3029,4.60122,2470.624,2023-7-12T11:52:55Z
2023-07-12T09:53:42Z,42.805,6.029,13.3034,4.60115,2470.624,2023-7-12T11:55:58Z
2023-07-12T09:56:45Z,42.805,6.029,13.3031,4.60137,2470.637,2023-7-12T11:59:01Z
2023-07-12T09:59:48Z,42.805,6.029,13.3034,4.60114,2470.646,2023-7-12T12:02:05Z
2023-07-12T10:02:51Z,42.805,6.029,13.3031,4.60121,2470.637,2023-7-12T12:05:08Z
2023-07-12T10:05:54Z,42.805,6.029,13.3034,4.60129,2470.637,2023-7-12T12:08:11Z
2023-07-12T10:08:57Z,42.805,6.029,13.3033,4.60115,2470.624,2023-7-12T12:11:14Z
2023-07-12T10:12:01Z,42.805,6.029,13.3034,4.60117,2470.684,2023-7-12T12:14:17Z
2023-07-12T10:15:04Z,42.805,6.029,13.3032,4.60110,2470.646,2023-7-12T12:17:20Z
2023-07-12T10:18:07Z,42.805,6.029,13.3033,4.60107,2470.661,2023-7-12T12:20:23Z
2023-07-12T10:21:10Z,42.805,6.029,13.3034,4.60110,2470.646,2023-7-12T12:23:26Z
2023-07-12T10:24:13Z,42.805,6.029,13.3034,4.60110,2470.624,2023-7-12T12:26:29Z
2023-07-12T10:27:16Z,42.805,6.029,13.3034,4.60111,2470.624,2023-7-12T12:29:32Z
2023-07-12T10:30:17Z,42.805,6.029,13.3037,4.60109,2470.67,2023-7-12T12:32:34Z
2023-07-12T10:33:20Z,42.805,6.029,13.3034,4.60110,2470.67,2023-7-12T12:35:37Z
2023-07-12T10:36:23Z,42.805,6.029,13.3035,4.60114,2470.646,2023-7-12T12:38:40Z
2023-07-12T10:39:26Z,42.805,6.029,13.3031,4.60111,2470.684,2023-7-12T12:41:43Z
2023-07-12T10:42:30Z,42.805,6.029,13.3035,4.60112,2470.646,2023-7-12T12:44:46Z
2023-07-12T10:45:33Z,42.805,6.029,13.3035,4.60116,2470.684,2023-7-12T12:47:49Z
2023-07-12T10:48:36Z,42.805,6.029,13.3034,4.60117,2470.684,2023-7-12T12:50:52Z
2023-07-12T10:51:39Z,42.805,6.029,13.3034,4.60112,2470.646,2023-7-12T12:53:55Z
2023-07-12T10:54:42Z,42.805,6.029,13.3031,4.60112,2470.624,2023-7-12T12:56:58Z
2023-07-12T10:57:45Z,42.805,6.029,13.3037,4.60112,2470.661,2023-7-12T13:00:01Z
2023-07-12T11:00:48Z,42.805,6.029,13.3033,4.60114,2470.646,2023-7-12T13:03:05Z
2023-07-12T11:03:51Z,42.805,6.029,13.3037,4.60109,2470.624,2023-7-12T13:06:08Z
2023-07-12T11:06:54Z,42.805,6.029,13.3030,4.60108,2470.684,2023-7-12T13:09:11Z
2023-07-12T11:09:57Z,42.805,6.029,13.3034,4.60104,2470.684,2023-7-12T13:12:14Z
2023-07-12T11:13:00Z,42.805,6.029,13.3034,4.60100,2470.67,2023-7-12T13:15:17Z
2023-07-12T11:16:04Z,42.805,6.029,13.3032,4.60103,2470.67,2023-7-12T13:18:20Z
2023-07-12T11:19:07Z,42.805,6.029,13.3035,4.60102,2470.67,2023-7-12T13:21:23Z
2023-07-12T11:22:10Z,42.805,6.029,13.3035,4.60104,2470.624,2023-7-12T13:24:26Z
2023-07-12T11:25:13Z,42.805,6.029,13.3032,4.60102,2470.707,2023-7-12T13:27:29Z
2023-07-12T11:28:16Z,42.805,6.029,13.3034,4.60105,2470.67,2023-7-12T13:30:32Z
2023-07-12T11:31:19Z,42.805,6.029,13.3034,4.60104,2470.656,2023-7-12T13:33:35Z
2023-07-12T11:34:22Z,42.805,6.029,13.3037,4.60102,2470.693,2023-7-12T13:36:38Z
2023-07-12T11:37:25Z,42.805,6.029,13.3033,4.60103,2470.67,2023-7-12T13:39:42Z
2023-07-12T11:40:28Z,42.805,6.029,13.3029,4.60104,2470.693,2023-7-12T13:42:45Z
2023-07-12T11:43:31Z,42.805,6.029,13.3033,4.60101,2470.67,2023-7-12T13:45:48Z
2023-07-12T11:46:34Z,42.805,6.029,13.3031,4.60102,2470.67,2023-7-12T13:48:51Z
2023-07-12T11:49:38Z,42.805,6.029,13.3032,4.60098,2470.67,2023-7-12T13:51:54Z
2023-07-12T11:52:41Z,42.805,6.029,13.3028,4.60098,2470.693,2023-7-12T13:54:57Z
2023-07-12T11:55:44Z,42.805,6.029,13.3031,4.60099,2470.67,2023-7-12T13:58:00Z
2023-07-12T11:58:47Z,42.805,6.029,13.3035,4.60099,2470.67,2023-7-12T14:01:03Z
2023-07-12T12:01:50Z,42.805,6.029,13.3030,4.60102,2470.684,2023-7-12T14:04:06Z
2023-07-12T12:04:53Z,42.805,6.029,13.3032,4.60098,2470.67,2023-7-12T14:07:09Z
2023-07-12T12:07:56Z,42.805,6.029,13.3031,4.60097,2470.684,2023-7-12T14:10:12Z
2023-07-12T12:10:59Z,42.805,6.029,13.3037,4.60099,2470.707,2023-7-12T14:13:16Z
2023-07-12T12:14:02Z,42.805,6.029,13.3031,4.60098,2470.693,2023-7-12T14:16:19Z
2023-07-12T12:17:05Z,42.805,6.029,13.3034,4.60105,2470.693,2023-7-12T14:19:22Z
2023-07-12T12:20:08Z,42.805,6.029,13.3031,4.60102,2470.693,2023-7-12T14:22:25Z
2023-07-12T12:23:12Z,42.805,6.029,13.3033,4.60105,2470.693,2023-7-12T14:25:28Z
2023-07-12T12:26:15Z,42.805,6.029,13.3029,4.60101,2470.707,2023-7-12T14:28:31Z
2023-07-12T12:29:18Z,42.805,6.029,13.3033,4.60104,2470.74,2023-7-12T14:31:34Z
2023-07-12T12:32:21Z,42.805,6.029,13.3031,4.60098,2470.693,2023-7-12T14:34:37Z
2023-07-12T12:35:24Z,42.805,6.029,13.3034,4.60097,2470.684,2023-7-12T14:37:40Z
2023-07-12T12:38:27Z,42.805,6.029,13.3033,4.60098,2470.693,2023-7-12T14:40:43Z
2023-07-12T12:41:30Z,42.805,6.029,13.3035,4.60104,2470.67,2023-7-12T14:43:46Z
2023-07-12T12:44:33Z,42.805,6.029,13.3031,4.60106,2470.684,2023-7-12T14:46:50Z
2023-07-12T12:47:36Z,42.805,6.029,13.3035,4.60104,2470.73,2023-7-12T14:49:53Z
2023-07-12T12:50:39Z,42.805,6.029,13.3032,4.60107,2470.717,2023-7-12T14:52:56Z
2023-07-12T12:53:42Z,42.805,6.029,13.3031,4.60102,2470.707,2023-7-12T14:55:59Z
2023-07-12T12:56:45Z,42.805,6.029,13.3034,4.60109,2470.717,2023-7-12T14:59:02Z
2023-07-12T12:59:49Z,42.805,6.029,13.3031,4.60108,2470.693,2023-7-12T15:02:05Z
2023-07-12T13:02:52Z,42.805,6.029,13.3029,4.60107,2470.717,2023-7-12T15:05:08Z
2023-07-12T13:05:55Z,42.805,6.029,13.3032,4.60103,2470.717,2023-7-12T15:08:11Z
2023-07-12T13:08:58Z,42.805,6.029,13.3031,4.60102,2470.717,2023-7-12T15:11:14Z
2023-07-12T13:12:01Z,42.805,6.029,13.3031,4.60103,2470.73,2023-7-12T15:14:17Z
2023-07-12T13:15:04Z,42.805,6.029,13.3034,4.60094,2470.74,2023-7-12T15:17:20Z
2023-07-12T13:18:07Z,42.805,6.029,13.3037,4.60097,2470.693,2023-7-12T15:20:24Z
2023-07-12T13:21:10Z,42.805,6.029,13.3035,4.60109,2470.717,2023-7-12T15:23:27Z
2023-07-12T13:24:13Z,42.805,6.029,13.3028,4.60097,2470.754,2023-7-12T15:26:30Z
2023-07-12T13:27:16Z,42.805,6.029,13.3029,4.60099,2470.717,2023-7-12T15:29:33Z
2023-07-12T13:30:19Z,42.805,6.029,13.3030,4.60112,2470.717,2023-7-12T15:32:36Z
2023-07-12T13:33:23Z,42.805,6.029,13.3031,4.60102,2470.717,2023-7-12T15:35:39Z
2023-07-12T13:36:26Z,42.805,6.029,13.3029,4.60097,2470.73,2023-7-12T15:38:42Z
2023-07-12T13:39:29Z,42.805,6.029,13.3032,4.60102,2470.717,2023-7-12T15:41:45Z
2023-07-12T13:42:32Z,42.805,6.029,13.3031,4.60097,2470.777,2023-7-12T15:44:48Z
2023-07-12T13:45:35Z,42.805,6.029,13.3032,4.60096,2470.777,2023-7-12T15:47:51Z
2023-07-12T13:48:38Z,42.805,6.029,13.3033,4.60098,2470.693,2023-7-12T15:50:54Z
2023-07-12T13:51:41Z,42.805,6.029,13.3030,4.60095,2470.74,2023-7-12T15:53:58Z
2023-07-12T13:54:44Z,42.805,6.029,13.3031,4.60099,2470.693,2023-7-12T15:57:01Z
2023-07-12T13:57:47Z,42.805,6.029,13.3034,4.60099,2470.717,2023-7-12T16:00:04Z
2023-07-12T14:00:50Z,42.805,6.029,13.3031,4.60110,2470.73,2023-7-12T16:03:07Z
2023-07-12T14:03:53Z,42.805,6.029,13.3032,4.60097,2470.74,2023-7-12T16:06:10Z
2023-07-12T14:06:57Z,42.805,6.029,13.3031,4.60104,2470.717,2023-7-12T16:09:13Z
2023-07-12T14:10:00Z,42.805,6.029,13.3033,4.60107,2470.754,2023-7-12T16:12:16Z
2023-07-12T14:13:03Z,42.805,6.029,13.3034,4.60101,2470.73,2023-7-12T16:15:19Z
2023-07-12T14:16:06Z,42.805,6.029,13.3031,4.60092,2470.717,2023-7-12T16:18:22Z
2023-07-12T14:19:09Z,42.805,6.029,13.3029,4.60097,2470.717,2023-7-12T16:21:25Z
2023-07-12T14:22:12Z,42.805,6.029,13.3031,4.60100,2470.754,2023-7-12T16:24:28Z
2023-07-12T14:25:15Z,42.805,6.029,13.3027,4.60095,2470.703,2023-7-12T16:27:31Z
2023-07-12T14:28:18Z,42.805,6.029,13.3029,4.60092,2470.74,2023-7-12T16:30:35Z
2023-07-12T14:31:20Z,42.805,6.029,13.3029,4.60093,2470.717,2023-7-12T16:33:36Z
2023-07-12T14:34:23Z,42.805,6.029,13.3031,4.60097,2470.74,2023-7-12T16:36:39Z
2023-07-12T14:37:26Z,42.805,6.029,13.3031,4.60096,2470.74,2023-7-12T16:39:42Z
2023-07-12T14:40:29Z,42.805,6.029,13.3034,4.60092,2470.717,2023-7-12T16:42:46Z
2023-07-12T14:43:32Z,42.805,6.029,13.3029,4.60092,2470.754,2023-7-12T16:45:49Z
2023-07-12T14:46:35Z,42.805,6.029,13.3026,4.60092,2470.754,2023-7-12T16:48:52Z
2023-07-12T14:49:38Z,42.805,6.029,13.3025,4.60094,2470.717,2023-7-12T16:51:55Z
2023-07-12T14:52:42Z,42.805,6.029,13.3030,4.60094,2470.74,2023-7-12T16:54:58Z
2023-07-12T14:55:45Z,42.805,6.029,13.3027,4.60092,2470.74,2023-7-12T16:58:01Z
2023-07-12T14:58:48Z,42.805,6.029,13.3027,4.60093,2470.74,2023-7-12T17:01:04Z
2023-07-12T15:01:51Z,42.805,6.029,13.3029,4.60096,2470.754,2023-7-12T17:04:07Z
2023-07-12T15:04:54Z,42.805,6.029,13.3031,4.60097,2470.74,2023-7-12T17:07:10Z
2023-07-12T15:07:57Z,42.805,6.029,13.3027,4.60092,2470.754,2023-7-12T17:10:13Z
2023-07-12T15:11:00Z,42.805,6.029,13.3031,4.60092,2470.763,2023-7-12T17:13:16Z
2023-07-12T15:14:03Z,42.805,6.029,13.3031,4.60092,2470.74,2023-7-12T17:16:20Z